SCP
0 0 0 0 0 0 0 0 0 0 0 0 0 0 0 0 0 0 0 0 0 0 0 0 0 0 0 0 0 0 0 0 0 0 0 0 0 0 0 0 0 0 0 0 0 0 0 0 0 0 0 0 0 0
0 0 0 0 0 0 0 0 0 0 0 0 0 0 0 0 0 0 0 0 0 0 0 0 0 0 0 0 0 0 0 0 0 0 0 0 0 0 0 0 0 0 0 0 0 0 0 0 0 0 0 0 0 0
0 0 0 0 0 0 0 0 0 0 0 0 0 0 0 0 0 0 0 0 0 0 0 0 0 0 0 0 0 0 0 0 0 0 0 0 0 0 0 0 0 0 0 0 0 0 0 0 0 0 0 0 0 0
0 0 0 0 0 0 0 0 0 0 0 0 0 0 0 0 0 0 0 0 0 0 0 0 0 0 0 0 0 0 0 0 0 0 0 0 0 0 0 0 0 0 0 0 0 0 0 0 0 0 0 0 0 0
0 0 0 0 0 0 0 0 0 0 0 0 0 0 0 0 0 0 0 0 0 0 0 0 0 0 0 0 0 0 0 0 0 0 0 0 0 0 0 0 0 0 0 0 0 0 0 0 0 0 0 0 0 0
0 0 0 0 0 0 0 0 0 0 0 0 0 0 0 0 0 0 0 0 0 0 0 0 0 0 0 0 0 0 0 0 0 0 0 0 0 0 0 0 0 0 0 0 0 0 0 0 0 0 0 0 0 0
0 0 0 0 0 0 0 0 0 0 0 0 0 0 0 0 0 0 0 0 0 0 0 0 0 0 0 0 0 0 0 0 0 0 0 0 0 0 0 0 0 0 0 0 0 0 0 0 0 0 0 0 0 0
0 0 0 0 0 0 0 0 0 0 0 0 0 0 0 0 0 0 0 0 0 0 0 0 0 0 0 0 0 0 0 0 0 0 0 0 0 0 0 0 0 0 0 0 0 0 0 0 0 0 0 0 0 0
0 0 0 0 0 0 0 0 0 0 0 0 0 0 0 0 0 0 0 0 0 0 0 0 0 0 0 0 0 0 0 0 0 0 0 0 0 0 0 0 0 0 0 0 0 0 0 0 0 0 0 0 0 0
0 0 0 0 0 0 0 0 0 0 0 0 0 0 0 0 0 0 0 0 0 0 0 0 0 0 0 0 0 0 0 0 0 0 0 0 0 0 0 0 0 0 0 0 0 0 0 0 0 0 0 0 0 0
0 0 0 0 0 0 0 0 0 0 0 0 0 0 0 0 0 0 0 0 0 0 0 0 0 0 0 0 0 0 0 0 0 0 0 0 0 0 0 0 0 0 0 0 0 0 0 0 0 0 0 0 0 0
0 0 0 0 0 0 0 0 0 0 0 0 0 0 0 0 0 0 0 0 0 0 0 0 0 0 0 0 0 0 0 0 0 0 0 0 0 0 0 0 0 0 -0 0 0 0 0 0 0 0 0 0 0 0
0 0 0 0 0 0 0 0 0 0 0 0 0 0 0 0 0 0 0 0 0 0 0 0 0 0 0 0 0 0 0 0 0 0 0 0 0 0 0 0 -0 0 0 0 0 0 0 0 0 0 0 0 0 0
0 0 0 0 0 0 0 0 0 0 0 0 0 0 0 0 0 0 0 0 0 0 0 0 0 0 0 0 0 0 0 0 0 0 0 0 0 0 0 0 0 0 0 0 0 0 0 0 0 0 0 0 0 0
0 0 0 0 0 0 0 0 0 0 0 0 0 0 0 0 0 0 0 0 0 0 0 0 0 0 0 0 0 0 0 0 0 0 0 0 0 0 0 0 0 0 0 0 0 0 0 0 0 0 0 0 0 0
0 0 0 0 0 0 0 0 0 0 0 0 0 0 0 0 0 0 0 0 0 0 0 0 0 0 0 0 0 0 0 0 0 0 0 0 0 0 0 0 0 0 0 0 0 0 0 0 0 0 0 0 0 0
0 0 0 0 0 0 0 0 0 0 0 0 0 0 0 0 0 0 0 0 0 0 0 0 0 0 0 0 0 0 0 0 0 0 0 0 0 0 0 0 0 0 0 0 0 0 0 0 0 0 0 0 0 0
0 0 0 0 0 0 0 0 0 0 0 0 0 0 0 0 0 0 0 0 0 0 0 0 0 0 0 0 0 0 0 0 0 0 0 0 0 0 0 0 0 0 0 0 0 0 0 0 0 0 0 0 0 0
0 0 0 0 0 0 0 0 0 0 0 0 0 0 0 0 0 0 0 0 0 0 0 0 0 0 0 0 0 0 0 0 0 0 0 0 0 0 0 0 0 0 0 0 0 0 0 0 0 0 0 0 0 0
0 0 0 0 0 0 0 0 0 0 0 0 0 0 0 0 0 0 0 0 0 0 0 0 0 0 0 0 0 0 0 0 0 0 0 0 0 0 0 0 0 0 0 0 0 0 0 0 0 0 0 0 0 0
0 0 0 0 0 0 0 0 0 0 0 0 0 0 0 0 0 0 0 0 0 0 0 0 0 0 0 0 0 0 0 0 0 0 0 0 0 0 0 0 0 0 0 0 0 0 0 0 0 0 0 0 0 0
0 0 0 0 0 0 0 0 0 0 0 0 0 0 0 0 0 0 0 0 0 0 0 0 0 0 0 0 0 0 0 0 0 0 0 0 0 0 0 0 0 0 0 0 0 0 0 0 0 0 0 0 0 0
0 0 0 0 0 0 0 0 0 0 0 0 0 0 0 0 0 0 0 0 0 0 0 0 0 0 0 0 0 0 0 0 0 0 0 0 0 0 0 0 0 0 0 0 0 0 0 0 0 0 0 0 0 0
0 0 0 0 0 0 0 0 0 0 0 0 0 0 0 0 0 0 0 0 0 0 0 0 0 0 0 0 0 0 0 0 0 0 0 0 0 0 0 0 0 0 0 0 0 0 0 0 0 0 0 0 0 0
0 0 0 0 0 0 0 0 0 0 0 0 0 0 0 0 0 0 0 0 0 0 0 0 0 0 0 0 0 0 0 0 0 0 0 0 0 0 0 0 0 0 0 0 0 0 0 0 0 0 0 0 0 0
0 0 0 0 0 0 0 0 0 0 0 0 0 0 0 0 0 0 0 0 0 0 0 0 0 0 0 0 0 0 0 0 0 0 0 0 0 0 0 0 0 0 0 0 0 0 0 0 0 0 0 0 0 0
0 0 0 0 0 0 0 0 0 0 0 0 0 0 0 0 0 0 0 0 0 0 0 0 0 0 0 0 0 0 0 0 0 0 0 0 0 0 0 0 0 0 0 0 0 0 0 0 0 0 0 0 0 0
0 0 0 0 0 0 0 0 0 0 0 0 0 0 0 0 0 0 0 0 0 0 0 0 0 0 0 0 0 0 0 0 0 0 0 0 0 0 0 0 0 0 0 0 0 0 -0 -0 -0 0 0 0 0 0
0 0 0 0 0 0 0 0 0 0 0 0 0 0 0 0 0 0 0 0 0 0 0 0 0 0 0 0 0 0 0 0 0 0 0 0 0 0 0 0 0 0 0 0 0 0 0 0 0 0 0 0 0 0
0 0 0 0 0 0 0 0 0 0 0 0 0 0 0 0 0 0 0 0 0 0 0 0 0 0 0 0 0 0 0 0 0 0 0 0 0 0 0 0 0 0 0 0 0 0 0 0 0 0 0 0 0 0
0 0 0 0 0 0 0 0 0 0 0 0 0 0 0 0 0 0 0 0 0 0 0 0 0 0 0 0 0 0 0 0 0 0 0 0 0 0 0 0 0 0 0 0 0 0 0 0 0 0 0 0 0 0
0 0 0 0 0 0 0 0 0 0 0 0 0 0 0 0 0 0 0 0 0 0 0 0 0 0 0 0 0 0 0 0 0 0 0 0 0 0 0 0 0 0 0 0 0 0 0 0 0 0 0 0 0 0
0 0 0 0 0 0 0 0 0 0 0 0 0 0 0 0 0 0 0 0 0 0 0 0 0 0 0 0 0 0 0 0 0 0 0 0 0 0 0 0 0 0 0 0 0 0 0 0 0 0 0 0 0 0
Wind_Speed_500mb
32 28 23 18 15 11 8 6 4 3 2 2 3 3 2 3 4 5 5 7 6 2 10 13 11 9 12 8 6 15 10 7 7 9 6 6 7 5 6 5 9 15 12 11 9 12 17 21 19 10 24 20 18 20
31 27 23 19 15 11 7 4 5 8 8 10 9 9 8 6 6 5 3 6 5 2 4 11 18 17 15 13 11 22 5 10 14 6 6 4 9 8 13 10 10 11 16 7 20 11 8 27 35 35 31 39 42 33
35 31 26 23 19 14 11 9 9 11 12 14 15 16 17 13 7 5 5 8 7 2 4 7 13 23 28 27 25 14 15 15 11 13 7 1 9 4 9 12 11 11 15 10 11 17 38 46 41 48 44 47 45 38
39 34 30 26 21 17 15 15 13 13 13 14 16 19 21 20 17 11 7 10 5 1 1 2 9 10 13 19 34 38 26 15 12 10 7 4 5 10 7 9 10 7 10 23 43 41 48 46 32 40 47 40 41 37
44 39 33 27 22 18 16 16 16 16 14 14 14 14 14 19 15 11 10 9 2 3 0 3 11 16 16 16 22 29 31 23 9 7 8 7 5 7 7 5 18 31 29 23 31 51 54 63 62 56 54 45 39 34
46 39 32 25 20 18 17 16 16 16 14 14 12 11 11 10 9 3 8 15 16 15 3 2 8 11 11 15 11 18 22 20 10 10 7 6 11 7 5 8 17 27 31 47 64 66 72 73 67 55 49 50 39 35
45 37 31 25 22 19 16 16 15 12 11 12 10 8 8 7 6 4 6 9 8 12 3 6 7 7 6 2 5 7 12 9 10 7 9 9 11 12 5 14 28 46 47 49 54 59 66 57 55 50 41 35 31 32
44 38 32 26 21 18 15 14 12 9 9 8 6 5 2 5 7 8 10 8 2 6 2 2 6 5 6 4 4 3 3 4 5 4 4 7 5 8 10 28 26 41 46 41 36 41 52 59 53 47 38 30 36 34
44 36 30 25 22 19 17 14 9 6 5 3 1 2 2 4 5 3 5 6 8 5 3 5 4 1 3 2 3 2 1 4 2 6 6 7 7 13 22 27 37 30 22 38 38 35 37 38 39 33 26 27 28 25
43 35 28 23 23 22 19 16 10 7 7 7 3 4 7 8 7 7 4 4 6 10 9 8 5 1 4 2 1 2 2 2 4 3 5 7 11 31 36 25 18 18 28 37 43 42 31 30 31 26 22 21 23 21
42 35 31 28 27 25 21 17 15 13 9 9 10 7 16 13 9 5 4 6 7 6 9 7 18 5 4 6 1 1 1 2 5 4 5 6 8 12 18 18 19 26 30 31 36 44 39 34 25 14 19 20 22 24
45 39 35 33 32 29 26 22 20 16 13 13 11 15 12 8 5 3 6 6 8 7 8 9 10 12 5 8 4 2 4 2 9 4 5 7 8 28 23 17 18 29 30 32 38 43 47 37 22 11 9 14 20 19
44 40 37 35 33 30 28 24 20 18 16 13 7 7 5 5 8 11 14 8 7 10 14 16 11 10 5 8 3 5 7 9 1 6 7 10 19 24 22 20 21 27 38 40 45 41 44 36 33 23 18 16 20 23
43 40 37 36 34 32 31 28 25 21 9 7 11 10 8 8 10 9 9 3 5 6 22 22 12 4 4 7 4 7 6 4 7 8 13 14 33 34 28 22 29 37 42 48 44 46 45 43 34 35 24 22 23 24
43 41 39 42 41 41 39 32 27 25 11 6 7 9 14 11 7 4 10 2 2 13 25 13 8 8 7 5 8 7 8 11 10 11 9 21 23 30 38 33 30 34 44 47 47 46 49 46 36 27 28 28 26 25
45 43 44 44 46 42 38 33 31 30 12 9 13 10 7 11 20 13 10 17 11 23 18 7 6 5 12 7 10 15 8 14 12 15 37 40 52 51 46 47 42 52 48 54 46 50 52 46 42 32 35 36 31 28
47 37 42 47 46 42 41 41 36 19 18 12 11 31 28 12 14 16 21 12 32 23 7 6 8 19 3 8 11 11 17 27 49 54 54 54 53 60 57 53 55 63 53 57 43 52 53 43 40 36 45 45 37 30
44 37 39 48 50 46 42 41 20 16 13 16 12 17 29 18 22 30 26 28 31 23 15 13 16 16 12 18 30 32 51 58 66 68 70 63 59 57 64 65 61 58 54 55 45 48 50 45 43 42 42 47 39 33
40 41 42 51 60 55 22 21 21 11 24 15 25 29 31 33 47 47 47 54 58 53 28 12 13 10 25 39 50 66 64 63 66 68 64 56 55 54 59 58 62 60 61 54 49 50 50 46 44 41 37 48 51 40
40 40 43 47 50 35 17 14 19 18 10 14 25 25 33 30 50 54 60 59 61 28 22 11 23 62 62 70 72 69 70 59 59 63 66 65 61 58 54 52 54 55 57 56 54 51 47 48 41 31 28 41 53 49
45 47 43 44 47 32 14 15 16 10 10 11 17 29 16 30 34 35 39 44 40 20 24 54 74 87 95 90 80 76 75 66 66 65 72 74 65 58 58 55 58 59 59 59 54 50 45 46 42 35 31 37 52 48
48 48 44 46 19 19 20 24 12 13 12 8 10 16 11 11 16 24 29 32 23 59 68 78 84 84 79 74 77 66 68 68 67 65 67 69 64 57 55 50 49 58 57 55 50 47 43 39 38 38 33 33 46 47
40 47 31 20 16 17 10 31 21 16 8 12 10 8 10 13 15 20 15 27 40 62 70 76 86 83 76 80 67 67 69 65 64 62 59 59 55 47 52 53 54 55 56 54 46 44 40 39 41 42 42 36 43 50
38 27 16 19 27 10 21 15 15 14 12 10 8 11 9 12 9 13 13 32 63 57 59 75 74 66 61 54 58 57 53 39 38 39 47 52 49 51 47 48 49 48 48 45 42 42 40 40 36 38 40 35 47 54
23 21 19 17 23 18 13 14 13 9 10 16 10 9 7 9 7 10 15 39 42 50 64 66 60 59 57 57 43 43 42 39 39 41 42 43 42 42 40 40 41 38 35 40 44 45 43 40 37 40 36 39 52 57
12 27 26 23 17 16 18 17 21 20 11 14 17 8 10 7 9 15 7 25 30 38 39 36 37 36 37 35 34 28 27 33 38 40 38 31 32 31 36 40 41 41 32 31 29 34 38 40 39 37 39 39 51 55
13 14 18 19 16 12 11 7 16 10 17 18 10 16 11 11 14 11 27 36 32 30 26 22 20 19 17 17 19 24 27 29 28 28 27 26 26 25 24 30 35 32 34 35 31 30 30 29 32 26 33 42 54 54
15 28 20 30 13 18 11 13 16 17 12 14 20 15 15 17 12 10 11 16 17 15 14 18 18 15 16 20 24 25 22 20 18 18 17 14 12 12 16 18 21 23 25 27 23 19 21 29 33 34 38 43 48 47
15 27 34 16 10 13 22 21 18 25 21 31 14 13 12 17 20 18 23 34 27 25 20 18 19 20 21 21 20 18 16 17 16 14 14 14 15 16 17 18 17 18 14 15 15 12 9 6 7 13 22 31 38 39
20 50 14 24 15 18 26 32 18 29 36 40 29 16 15 18 23 30 32 35 31 26 23 23 22 20 19 17 14 14 13 11 12 14 16 17 20 20 20 18 16 16 13 12 9 5 4 8 13 17 21 26 31 35
38 36 14 17 11 17 33 35 26 23 26 28 32 26 25 23 32 39 38 37 31 29 27 25 23 20 13 10 12 12 12 12 11 12 15 16 18 18 20 18 16 15 8 5 2 3 4 4 9 14 20 24 27 33
20 23 18 10 6 15 25 27 22 20 19 19 14 22 16 12 11 17 27 30 33 29 26 20 17 16 15 14 15 13 12 14 15 15 15 14 17 17 17 16 12 9 5 6 7 6 4 3 6 11 19 25 29 28
13 12 8 13 13 17 15 15 15 10 10 10 12 19 23 15 13 13 13 18 21 22 22 21 20 19 18 18 18 19 18 17 18 20 22 20 16 16 15 12 10 10 11 10 10 8 9 10 10 12 15 19 20 20
Wind_Direction_500mb
240 242 240 241 240 231 227 226 243 252 281 277 312 302 316 356 30 34 28 24 54 77 187 200 185 160 155 184 193 150 151 176 174 209 214 197 224 179 241 221 202 192 191 209 201 219 271 158 145 218 316 302 296 292
224 220 214 205 206 206 213 250 295 308 312 312 307 299 302 312 308 313 323 334 346 216 208 189 196 203 221 208 181 174 250 175 194 188 204 153 209 199 233 265 191 242 220 237 207 225 349 205 264 285 285 288 292 289
208 205 198 197 197 209 225 251 279 294 307 311 306 301 300 297 307 310 307 318 341 345 265 236 230 239 238 225 209 199 227 213 203 196 169 248 234 188 229 231 247 246 226 255 295 234 268 279 279 281 286 281 291 283
197 201 199 202 206 220 235 251 261 276 291 298 302 306 308 305 305 302 315 325 334 338 267 208 229 224 227 214 217 221 240 224 213 185 221 184 234 209 255 303 263 347 173 258 271 281 272 276 292 304 305 300 295 286
194 194 202 209 220 232 247 256 266 270 275 278 282 286 294 308 323 328 340 359 13 173 164 273 271 257 245 229 233 231 237 238 202 200 200 217 232 241 243 286 252 231 252 252 269 301 313 303 308 306 297 294 291 274
194 196 203 207 222 240 254 261 266 271 274 277 277 275 274 274 315 24 103 92 82 53 47 301 272 264 258 246 240 227 224 223 199 207 214 214 210 227 267 264 266 259 268 272 284 300 299 300 298 295 283 285 277 269
194 197 203 210 218 226 240 259 270 275 283 284 280 270 264 266 263 126 132 147 20 18 26 309 291 268 273 237 233 224 212 208 209 221 217 228 211 198 250 256 281 311 312 305 293 301 300 299 298 298 282 282 269 255
193 195 201 207 217 226 231 239 240 247 265 277 305 325 229 199 205 214 219 228 31 71 188 154 264 292 207 198 190 177 182 204 213 230 208 219 189 217 255 256 292 316 318 309 301 296 288 295 297 293 283 270 260 253
191 193 199 202 208 213 211 212 221 206 205 196 51 53 76 111 116 123 124 159 147 175 222 198 225 309 147 91 87 93 101 248 244 247 237 196 187 224 246 275 302 314 316 307 318 314 304 300 305 304 282 260 246 236
188 192 197 201 201 197 195 196 177 163 155 156 150 135 98 112 119 111 85 127 163 196 236 232 211 287 150 139 172 201 13 293 251 201 159 231 252 251 264 274 282 307 321 329 330 334 325 314 308 304 289 268 249 238
185 186 191 189 186 180 182 182 169 161 147 156 139 117 121 129 128 144 151 176 183 241 227 217 202 201 194 236 244 292 346 205 260 134 237 239 252 235 219 246 283 312 313 319 327 331 325 320 308 295 294 284 241 234
185 182 179 177 176 172 176 180 182 175 153 146 122 122 130 135 133 168 204 200 204 232 201 180 171 185 199 200 206 186 264 190 252 163 238 252 245 229 239 254 315 328 317 327 332 326 332 319 322 289 261 261 240 241
181 177 176 178 174 173 176 184 187 182 166 139 125 116 157 129 174 211 194 199 207 196 172 159 149 155 147 190 203 184 227 237 136 236 243 246 250 243 243 263 301 329 338 316 328 324 331 322 290 280 262 246 242 251
179 178 176 175 173 171 179 188 190 180 159 168 151 165 202 190 231 204 213 180 173 159 156 148 138 157 134 174 214 236 223 212 240 232 234 243 243 255 252 279 291 313 321 326 315 324 325 328 314 278 244 221 231 250
179 177 173 173 174 177 183 191 192 192 180 210 176 207 201 204 223 248 235 220 193 148 144 125 114 181 157 222 207 222 228 232 226 232 243 267 284 295 271 270 299 307 314 318 310 315 321 317 313 275 234 220 227 243
175 173 184 176 182 184 183 186 187 196 199 212 223 186 149 181 221 231 222 206 195 159 145 123 140 218 219 221 211 208 232 229 240 233 272 284 292 299 297 280 296 312 311 317 308 308 312 308 304 275 235 228 230 241
173 185 182 182 183 181 183 184 181 184 210 212 207 202 187 173 185 206 207 190 187 162 189 151 204 222 131 219 212 216 231 252 265 276 281 284 285 291 297 296 300 307 305 306 299 301 305 299 291 266 239 232 231 240
182 180 177 181 178 176 184 192 193 213 223 197 173 174 199 221 225 231 227 210 180 196 199 224 249 209 224 241 249 250 255 265 268 272 277 281 287 287 294 296 299 300 298 304 297 298 297 304 289 281 256 241 233 235
184 178 175 178 185 182 177 198 194 227 214 207 214 218 206 219 239 241 239 238 242 243 239 210 232 226 235 244 253 265 270 268 275 281 282 285 289 286 289 290 295 297 299 302 293 296 292 296 288 282 264 244 234 235
179 180 179 190 201 185 174 213 190 217 215 214 218 220 222 229 246 246 241 237 236 222 218 221 238 244 251 256 258 263 270 277 282 285 284 286 288 289 287 287 290 294 295 297 294 295 289 291 285 263 259 246 234 231
184 183 193 204 202 198 197 195 196 206 208 210 233 227 226 239 232 234 234 225 213 220 236 238 247 253 255 259 266 269 272 275 275 275 280 287 290 291 286 285 285 287 288 290 290 290 281 280 277 265 274 257 234 226
188 198 192 197 204 211 217 208 191 181 191 188 186 198 214 211 223 220 228 195 224 233 235 243 250 257 264 265 268 271 272 274 275 277 279 282 282 283 283 286 285 285 284 288 287 280 274 271 268 260 276 266 235 219
183 188 186 180 203 221 228 188 178 205 204 187 183 222 217 215 226 216 221 224 244 248 248 248 260 266 262 271 277 276 277 277 277 279 281 285 286 286 288 290 290 286 285 286 283 282 280 269 264 260 269 248 220 213
179 171 183 202 207 209 169 173 182 168 196 195 221 242 245 225 212 219 245 249 249 259 264 265 265 262 268 270 270 277 288 283 278 281 287 289 288 292 297 302 304 294 285 283 278 276 272 268 257 261 258 225 210 210
179 201 194 196 191 173 163 160 176 195 229 201 220 235 218 177 226 244 256 270 268 262 270 272 265 262 262 272 276 279 289 289 288 289 292 290 293 294 293 308 317 314 302 286 278 273 266 257 252 255 239 220 207 210
212 205 195 194 166 165 174 174 192 205 208 206 219 229 167 196 226 251 249 282 279 281 283 283 281 276 274 274 277 284 290 293 293 293 302 302 296 291 293 303 310 317 322 317 303 281 267 254 252 246 227 217 208 210
213 193 180 190 173 156 163 151 164 170 186 202 190 175 185 217 235 245 275 281 280 289 294 291 281 271 272 276 286 295 297 297 298 302 308 309 306 306 296 295 300 308 309 311 305 282 265 259 242 243 234 210 211 209
206 171 165 173 188 181 164 174 181 195 198 194 160 186 195 206 229 227 242 285 285 268 269 275 272 272 281 293 300 304 310 310 312 318 325 328 332 343 340 334 328 325 319 315 314 305 257 244 243 246 241 222 207 202
174 167 145 167 149 186 209 195 202 211 200 180 190 202 216 231 244 248 289 281 266 263 265 267 270 279 285 291 293 296 309 322 334 345 353 349 342 338 335 336 351 352 352 7 27 47 65 107 179 204 204 200 196 195
164 168 159 171 176 204 206 201 214 216 207 210 218 224 230 243 267 281 276 269 260 257 257 259 264 269 277 280 280 290 296 311 327 338 342 337 337 341 339 335 336 335 333 332 341 4 100 138 152 162 176 186 194 199
183 173 151 169 210 209 213 209 209 204 211 216 223 233 246 262 270 271 266 258 251 249 249 253 263 271 276 263 266 270 275 279 291 304 307 315 327 331 333 334 331 321 316 301 281 323 329 237 220 211 199 198 197 197
169 178 163 157 156 174 175 183 186 197 205 209 225 232 240 243 253 259 246 242 238 234 244 249 244 243 239 251 250 256 267 281 280 275 282 285 294 296 311 317 321 323 299 257 252 278 266 242 211 207 206 199 194 196
156 153 129 125 142 167 174 160 176 177 199 202 222 220 217 215 241 241 237 227 223 221 224 225 232 235 237 246 254 261 267 272 279 280 276 274 278 301 303 303 304 301 293 264 242 244 235 240 228 210 200 202 209 216
Wind_Speed_850mb
32 28 23 18 15 11 8 6 4 3 2 2 3 3 2 3 4 5 5 7 6 2 10 13 11 9 12 8 6 15 10 7 7 9 6 6 7 5 6 5 9 15 12 11 9 12 17 21 19 10 24 20 18 20
31 27 23 19 15 11 7 4 5 8 8 10 9 9 8 6 6 5 3 6 5 2 4 11 18 17 15 13 11 22 5 10 14 6 6 4 9 8 13 10 10 11 16 7 20 11 8 27 35 35 31 39 42 33
35 31 26 23 19 14 11 9 9 11 12 14 15 16 17 13 7 5 5 8 7 2 4 7 13 23 28 27 25 14 15 15 11 13 7 1 9 4 9 12 11 11 15 10 11 17 38 46 41 48 44 47 45 38
39 34 30 26 21 17 15 15 13 13 13 14 16 19 21 20 17 11 7 10 5 1 1 2 9 10 13 19 34 38 26 15 12 10 7 4 5 10 7 9 10 7 10 23 43 41 48 46 32 40 47 40 41 37
44 39 33 27 22 18 16 16 16 16 14 14 14 14 14 19 15 11 10 9 2 3 0 3 11 16 16 16 22 29 31 23 9 7 8 7 5 7 7 5 18 31 29 23 31 51 54 63 62 56 54 45 39 34
46 39 32 25 20 18 17 16 16 16 14 14 12 11 11 10 9 3 8 15 16 15 3 2 8 11 11 15 11 18 22 20 10 10 7 6 11 7 5 8 17 27 31 47 64 66 72 73 67 55 49 50 39 35
45 37 31 25 22 19 16 16 15 12 11 12 10 8 8 7 6 4 6 9 8 12 3 6 7 7 6 2 5 7 12 9 10 7 9 9 11 12 5 14 28 46 47 49 54 59 66 57 55 50 41 35 31 32
44 38 32 26 21 18 15 14 12 9 9 8 6 5 2 5 7 8 10 8 2 6 2 2 6 5 6 4 4 3 3 4 5 4 4 7 5 8 10 28 26 41 46 41 36 41 52 59 53 47 38 30 36 34
44 36 30 25 22 19 17 14 9 6 5 3 1 2 2 4 5 3 5 6 8 5 3 5 4 1 3 2 3 2 1 4 2 6 6 7 7 13 22 27 37 30 22 38 38 35 37 38 39 33 26 27 28 25
43 35 28 23 23 22 19 16 10 7 7 7 3 4 7 8 7 7 4 4 6 10 9 8 5 1 4 2 1 2 2 2 4 3 5 7 11 31 36 25 18 18 28 37 43 42 31 30 31 26 22 21 23 21
42 35 31 28 27 25 21 17 15 13 9 9 10 7 16 13 9 5 4 6 7 6 9 7 18 5 4 6 1 1 1 2 5 4 5 6 8 12 18 18 19 26 30 31 36 44 39 34 25 14 19 20 22 24
45 39 35 33 32 29 26 22 20 16 13 13 11 15 12 8 5 3 6 6 8 7 8 9 10 12 5 8 4 2 4 2 9 4 5 7 8 28 23 17 18 29 30 32 38 43 47 37 22 11 9 14 20 19
44 40 37 35 33 30 28 24 20 18 16 13 7 7 5 5 8 11 14 8 7 10 14 16 11 10 5 8 3 5 7 9 1 6 7 10 19 24 22 20 21 27 38 40 45 41 44 36 33 23 18 16 20 23
43 40 37 36 34 32 31 28 25 21 9 7 11 10 8 8 10 9 9 3 5 6 22 22 12 4 4 7 4 7 6 4 7 8 13 14 33 34 28 22 29 37 42 48 44 46 45 43 34 35 24 22 23 24
43 41 39 42 41 41 39 32 27 25 11 6 7 9 14 11 7 4 10 2 2 13 25 13 8 8 7 5 8 7 8 11 10 11 9 21 23 30 38 33 30 34 44 47 47 46 49 46 36 27 28 28 26 25
45 43 44 44 46 42 38 33 31 30 12 9 13 10 7 11 20 13 10 17 11 23 18 7 6 5 12 7 10 15 8 14 12 15 37 40 52 51 46 47 42 52 48 54 46 50 52 46 42 32 35 36 31 28
47 37 42 47 46 42 41 41 36 19 18 12 11 31 28 12 14 16 21 12 32 23 7 6 8 19 3 8 11 11 17 27 49 54 54 54 53 60 57 53 55 63 53 57 43 52 53 43 40 36 45 45 37 30
44 37 39 48 50 46 42 41 20 16 13 16 12 17 29 18 22 30 26 28 31 23 15 13 16 16 12 18 30 32 51 58 66 68 70 63 59 57 64 65 61 58 54 55 45 48 50 45 43 42 42 47 39 33
40 41 42 51 60 55 22 21 21 11 24 15 25 29 31 33 47 47 47 54 58 53 28 12 13 10 25 39 50 66 64 63 66 68 64 56 55 54 59 58 62 60 61 54 49 50 50 46 44 41 37 48 51 40
40 40 43 47 50 35 17 14 19 18 10 14 25 25 33 30 50 54 60 59 61 28 22 11 23 62 62 70 72 69 70 59 59 63 66 65 61 58 54 52 54 55 57 56 54 51 47 48 41 31 28 41 53 49
45 47 43 44 47 32 14 15 16 10 10 11 17 29 16 30 34 35 39 44 40 20 24 54 74 87 95 90 80 76 75 66 66 65 72 74 65 58 58 55 58 59 59 59 54 50 45 46 42 35 31 37 52 48
48 48 44 46 19 19 20 24 12 13 12 8 10 16 11 11 16 24 29 32 23 59 68 78 84 84 79 74 77 66 68 68 67 65 67 69 64 57 55 50 49 58 57 55 50 47 43 39 38 38 33 33 46 47
40 47 31 20 16 17 10 31 21 16 8 12 10 8 10 13 15 20 15 27 40 62 70 76 86 83 76 80 67 67 69 65 64 62 59 59 55 47 52 53 54 55 56 54 46 44 40 39 41 42 42 36 43 50
38 27 16 19 27 10 21 15 15 14 12 10 8 11 9 12 9 13 13 32 63 57 59 75 74 66 61 54 58 57 53 39 38 39 47 52 49 51 47 48 49 48 48 45 42 42 40 40 36 38 40 35 47 54
23 21 19 17 23 18 13 14 13 9 10 16 10 9 7 9 7 10 15 39 42 50 64 66 60 59 57 57 43 43 42 39 39 41 42 43 42 42 40 40 41 38 35 40 44 45 43 40 37 40 36 39 52 57
12 27 26 23 17 16 18 17 21 20 11 14 17 8 10 7 9 15 7 25 30 38 39 36 37 36 37 35 34 28 27 33 38 40 38 31 32 31 36 40 41 41 32 31 29 34 38 40 39 37 39 39 51 55
13 14 18 19 16 12 11 7 16 10 17 18 10 16 11 11 14 11 27 36 32 30 26 22 20 19 17 17 19 24 27 29 28 28 27 26 26 25 24 30 35 32 34 35 31 30 30 29 32 26 33 42 54 54
15 28 20 30 13 18 11 13 16 17 12 14 20 15 15 17 12 10 11 16 17 15 14 18 18 15 16 20 24 25 22 20 18 18 17 14 12 12 16 18 21 23 25 27 23 19 21 29 33 34 38 43 48 47
15 27 34 16 10 13 22 21 18 25 21 31 14 13 12 17 20 18 23 34 27 25 20 18 19 20 21 21 20 18 16 17 16 14 14 14 15 16 17 18 17 18 14 15 15 12 9 6 7 13 22 31 38 39
20 50 14 24 15 18 26 32 18 29 36 40 29 16 15 18 23 30 32 35 31 26 23 23 22 20 19 17 14 14 13 11 12 14 16 17 20 20 20 18 16 16 13 12 9 5 4 8 13 17 21 26 31 35
38 36 14 17 11 17 33 35 26 23 26 28 32 26 25 23 32 39 38 37 31 29 27 25 23 20 13 10 12 12 12 12 11 12 15 16 18 18 20 18 16 15 8 5 2 3 4 4 9 14 20 24 27 33
20 23 18 10 6 15 25 27 22 20 19 19 14 22 16 12 11 17 27 30 33 29 26 20 17 16 15 14 15 13 12 14 15 15 15 14 17 17 17 16 12 9 5 6 7 6 4 3 6 11 19 25 29 28
13 12 8 13 13 17 15 15 15 10 10 10 12 19 23 15 13 13 13 18 21 22 22 21 20 19 18 18 18 19 18 17 18 20 22 20 16 16 15 12 10 10 11 10 10 8 9 10 10 12 15 19 20 20
Wind_Direction_850mb
240 242 240 241 240 231 227 226 243 252 281 277 312 302 316 356 30 34 28 24 54 77 187 200 185 160 155 184 193 150 151 176 174 209 214 197 224 179 241 221 202 192 191 209 201 219 271 158 145 218 316 302 296 292
224 220 214 205 206 206 213 250 295 308 312 312 307 299 302 312 308 313 323 334 346 216 208 189 196 203 221 208 181 174 250 175 194 188 204 153 209 199 233 265 191 242 220 237 207 225 349 205 264 285 285 288 292 289
208 205 198 197 197 209 225 251 279 294 307 311 306 301 300 297 307 310 307 318 341 345 265 236 230 239 238 225 209 199 227 213 203 196 169 248 234 188 229 231 247 246 226 255 295 234 268 279 279 281 286 281 291 283
197 201 199 202 206 220 235 251 261 276 291 298 302 306 308 305 305 302 315 325 334 338 267 208 229 224 227 214 217 221 240 224 213 185 221 184 234 209 255 303 263 347 173 258 271 281 272 276 292 304 305 300 295 286
194 194 202 209 220 232 247 256 266 270 275 278 282 286 294 308 323 328 340 359 13 173 164 273 271 257 245 229 233 231 237 238 202 200 200 217 232 241 243 286 252 231 252 252 269 301 313 303 308 306 297 294 291 274
194 196 203 207 222 240 254 261 266 271 274 277 277 275 274 274 315 24 103 92 82 53 47 301 272 264 258 246 240 227 224 223 199 207 214 214 210 227 267 264 266 259 268 272 284 300 299 300 298 295 283 285 277 269
194 197 203 210 218 226 240 259 270 275 283 284 280 270 264 266 263 126 132 147 20 18 26 309 291 268 273 237 233 224 212 208 209 221 217 228 211 198 250 256 281 311 312 305 293 301 300 299 298 298 282 282 269 255
193 195 201 207 217 226 231 239 240 247 265 277 305 325 229 199 205 214 219 228 31 71 188 154 264 292 207 198 190 177 182 204 213 230 208 219 189 217 255 256 292 316 318 309 301 296 288 295 297 293 283 270 260 253
191 193 199 202 208 213 211 212 221 206 205 196 51 53 76 111 116 123 124 159 147 175 222 198 225 309 147 91 87 93 101 248 244 247 237 196 187 224 246 275 302 314 316 307 318 314 304 300 305 304 282 260 246 236
188 192 197 201 201 197 195 196 177 163 155 156 150 135 98 112 119 111 85 127 163 196 236 232 211 287 150 139 172 201 13 293 251 201 159 231 252 251 264 274 282 307 321 329 330 334 325 314 308 304 289 268 249 238
185 186 191 189 186 180 182 182 169 161 147 156 139 117 121 129 128 144 151 176 183 241 227 217 202 201 194 236 244 292 346 205 260 134 237 239 252 235 219 246 283 312 313 319 327 331 325 320 308 295 294 284 241 234
185 182 179 177 176 172 176 180 182 175 153 146 122 122 130 135 133 168 204 200 204 232 201 180 171 185 199 200 206 186 264 190 252 163 238 252 245 229 239 254 315 328 317 327 332 326 332 319 322 289 261 261 240 241
181 177 176 178 174 173 176 184 187 182 166 139 125 116 157 129 174 211 194 199 207 196 172 159 149 155 147 190 203 184 227 237 136 236 243 246 250 243 243 263 301 329 338 316 328 324 331 322 290 280 262 246 242 251
179 178 176 175 173 171 179 188 190 180 159 168 151 165 202 190 231 204 213 180 173 159 156 148 138 157 134 174 214 236 223 212 240 232 234 243 243 255 252 279 291 313 321 326 315 324 325 328 314 278 244 221 231 250
179 177 173 173 174 177 183 191 192 192 180 210 176 207 201 204 223 248 235 220 193 148 144 125 114 181 157 222 207 222 228 232 226 232 243 267 284 295 271 270 299 307 314 318 310 315 321 317 313 275 234 220 227 243
175 173 184 176 182 184 183 186 187 196 199 212 223 186 149 181 221 231 222 206 195 159 145 123 140 218 219 221 211 208 232 229 240 233 272 284 292 299 297 280 296 312 311 317 308 308 312 308 304 275 235 228 230 241
173 185 182 182 183 181 183 184 181 184 210 212 207 202 187 173 185 206 207 190 187 162 189 151 204 222 131 219 212 216 231 252 265 276 281 284 285 291 297 296 300 307 305 306 299 301 305 299 291 266 239 232 231 240
182 180 177 181 178 176 184 192 193 213 223 197 173 174 199 221 225 231 227 210 180 196 199 224 249 209 224 241 249 250 255 265 268 272 277 281 287 287 294 296 299 300 298 304 297 298 297 304 289 281 256 241 233 235
184 178 175 178 185 182 177 198 194 227 214 207 214 218 206 219 239 241 239 238 242 243 239 210 232 226 235 244 253 265 270 268 275 281 282 285 289 286 289 290 295 297 299 302 293 296 292 296 288 282 264 244 234 235
179 180 179 190 201 185 174 213 190 217 215 214 218 220 222 229 246 246 241 237 236 222 218 221 238 244 251 256 258 263 270 277 282 285 284 286 288 289 287 287 290 294 295 297 294 295 289 291 285 263 259 246 234 231
184 183 193 204 202 198 197 195 196 206 208 210 233 227 226 239 232 234 234 225 213 220 236 238 247 253 255 259 266 269 272 275 275 275 280 287 290 291 286 285 285 287 288 290 290 290 281 280 277 265 274 257 234 226
188 198 192 197 204 211 217 208 191 181 191 188 186 198 214 211 223 220 228 195 224 233 235 243 250 257 264 265 268 271 272 274 275 277 279 282 282 283 283 286 285 285 284 288 287 280 274 271 268 260 276 266 235 219
183 188 186 180 203 221 228 188 178 205 204 187 183 222 217 215 226 216 221 224 244 248 248 248 260 266 262 271 277 276 277 277 277 279 281 285 286 286 288 290 290 286 285 286 283 282 280 269 264 260 269 248 220 213
179 171 183 202 207 209 169 173 182 168 196 195 221 242 245 225 212 219 245 249 249 259 264 265 265 262 268 270 270 277 288 283 278 281 287 289 288 292 297 302 304 294 285 283 278 276 272 268 257 261 258 225 210 210
179 201 194 196 191 173 163 160 176 195 229 201 220 235 218 177 226 244 256 270 268 262 270 272 265 262 262 272 276 279 289 289 288 289 292 290 293 294 293 308 317 314 302 286 278 273 266 257 252 255 239 220 207 210
212 205 195 194 166 165 174 174 192 205 208 206 219 229 167 196 226 251 249 282 279 281 283 283 281 276 274 274 277 284 290 293 293 293 302 302 296 291 293 303 310 317 322 317 303 281 267 254 252 246 227 217 208 210
213 193 180 190 173 156 163 151 164 170 186 202 190 175 185 217 235 245 275 281 280 289 294 291 281 271 272 276 286 295 297 297 298 302 308 309 306 306 296 295 300 308 309 311 305 282 265 259 242 243 234 210 211 209
206 171 165 173 188 181 164 174 181 195 198 194 160 186 195 206 229 227 242 285 285 268 269 275 272 272 281 293 300 304 310 310 312 318 325 328 332 343 340 334 328 325 319 315 314 305 257 244 243 246 241 222 207 202
174 167 145 167 149 186 209 195 202 211 200 180 190 202 216 231 244 248 289 281 266 263 265 267 270 279 285 291 293 296 309 322 334 345 353 349 342 338 335 336 351 352 352 7 27 47 65 107 179 204 204 200 196 195
164 168 159 171 176 204 206 201 214 216 207 210 218 224 230 243 267 281 276 269 260 257 257 259 264 269 277 280 280 290 296 311 327 338 342 337 337 341 339 335 336 335 333 332 341 4 100 138 152 162 176 186 194 199
183 173 151 169 210 209 213 209 209 204 211 216 223 233 246 262 270 271 266 258 251 249 249 253 263 271 276 263 266 270 275 279 291 304 307 315 327 331 333 334 331 321 316 301 281 323 329 237 220 211 199 198 197 197
169 178 163 157 156 174 175 183 186 197 205 209 225 232 240 243 253 259 246 242 238 234 244 249 244 243 239 251 250 256 267 281 280 275 282 285 294 296 311 317 321 323 299 257 252 278 266 242 211 207 206 199 194 196
156 153 129 125 142 167 174 160 176 177 199 202 222 220 217 215 241 241 237 227 223 221 224 225 232 235 237 246 254 261 267 272 279 280 276 274 278 301 303 303 304 301 293 264 242 244 235 240 228 210 200 202 209 216